This demonstration page uses our WeatherBlox Daily Observations layout. Learn more.

Left ArrowRight Arrow

36.17497, -115.13722

Hourly Observations for October 19, 2016

Temp ( °F °C ) Dew Point ( °F °C ) Humidity (%) Winds ( mph kmh ) Pressure ( in mb ) Visibility ( mi km ) Precip ( " mm )
12:53 am 00:53 Clear 70 21.1 7 -13.9 8 8 N 13 20 30.03 1017 10 16.0934 0 0
1:53 am 01:53 Clear 66 18.9 10 -12.2 11 11 N 17 28 30.05 1018 10 16.0934 0 0
2:53 am 02:53 Clear 66 18.9 16 -8.9 14 14 N 15 24 30.07 1018 10 16.0934 0 0
3:53 am 03:53 Clear 65 18.3 18 -7.8 16 16 N 17 28 30.09 1019 10 16.0934 0 0
4:53 am 04:53 Clear 63 17.2 19 -7.2 18 18 N 16 26 30.11 1020 10 16.0934 0 0
5:53 am 05:53 Clear 63 17.2 20 -6.7 19 19 N 18 30 30.15 1021 10 16.0934 0 0
6:53 am 06:53 Sunny 62 16.7 21 -6.1 21 21 N 15 24 30.19 1022 10 16.0934 0 0
7:53 am 07:53 Sunny 63 17.2 22 -5.6 21 21 N 16 26 30.21 1023 10 16.0934 0 0
8:53 am 08:53 Sunny 65 18.3 23 -5 20 20 NNW 13 20 30.24 1024 10 16.0934 0 0
9:53 am 09:53 Sunny 67 19.4 23 -5 19 19 N 20 31 30.24 1024 10 16.0934 0 0
10:53 am 10:53 Sunny 70 21.1 22 -5.6 16 16 N 14 22 30.24 1024 10 16.0934 0 0
11:53 am 11:53 Sunny 71 21.7 22 -5.6 16 16 NNW 6 9 30.24 1024 10 16.0934 0 0
12:53 pm 12:53 Sunny 72 22.2 22 -5.6 15 15 SSE 5 7 30.21 1023 10 16.0934 0 0
1:53 pm 13:53 Sunny 74 23.3 22 -5.6 14 14 VRB 7 11 30.18 1022 10 16.0934 0 0
2:53 pm 14:53 Sunny 77 25 21 -6.1 12 12 VRB 3 6 30.16 1021 10 16.0934 0 0
3:53 pm 15:53 Sunny 78 25.6 20 -6.7 11 11 N 7 11 30.15 1021 10 16.0934 0 0
4:53 pm 16:53 Sunny 78 25.6 19 -7.2 11 11 N 12 19 30.15 1021 10 16.0934 0 0
5:53 pm 17:53 Sunny 75 23.9 20 -6.7 12 12 N 9 15 30.16 1021 10 16.0934 0 0
6:53 pm 18:53 Clear 74 23.3 19 -7.2 12 12 NNE 9 15 30.17 1022 10 16.0934 0 0
7:53 pm 19:53 Clear 71 21.7 20 -6.7 14 14 N 7 11 30.18 1022 10 16.0934 0 0
8:53 pm 20:53 Clear 69 20.6 19 -7.2 15 15 N 6 9 30.2 1023 10 16.0934 0 0
9:53 pm 21:53 Clear 68 20 19 -7.2 15 15 NNE 9 15 30.2 1023 10 16.0934 0 0
10:53 pm 22:53 Clear 68 20 19 -7.2 15 15 NE 7 11 30.22 1023 10 16.0934 0 0
11:53 pm 23:53 Clear 66 18.9 19 -7.2 16 16 NNE 8 13 30.22 1024 10 16.0934 0 0

Powered by AerisWeather